Regional Weather Roundup
Issued by NWS

Home | Current Version | Previous Version | Text Only | Print | Product List | Glossary Off
Versions: 1 2 3 4 5 6 7 8 9 10 11 12 13 14 15 16 17 18 19 20 21 22 23 24 25 26 27 28 29 30 31 32 33 34 35 36 37 38 39 40 41 42 43 44 45 46 47 48 49 50

000
ASUS44 KMEG 262010
RWRTN
TENNESSEE HOURLY STATE WEATHER ROUNDUP
NATIONAL WEATHER SERVICE MEMPHIS TN
200 PM CST THU FEB 26 2015

TNZ002-004-019-021-049-052-054-088>092-262100-
WEST TENNESSEE

CITY           SKY/WX    TMP DP  RH WIND       PRES   REMARKS
MEMPHIS INTL   CLOUDY    38  28  67 N14G22    30.17R WCI  30
NWS MEMPHIS      N/A     37 N/A N/A MISG        N/A
JACKSON        CLOUDY    40  24  53 NW13      30.13R WCI  32
DYERSBURG      CLOUDY    32  16  51 N14G23    30.21R WCI  22
UNION CITY     CLOUDY    30  25  80 NW17      30.16R WCI  18
PARIS          CLOUDY    32  19  59 NW10      30.13R WCI  24
LEXINGTON      CLOUDY    41  21  45 NW12      30.08R
SAVANNAH       CLOUDY    43  27  52 NW8       30.09R
$$

TNZ008-025-027-028-033-062-065-066-262100-
NORTH MIDDLE TENNESSEE

CITY           SKY/WX    TMP DP  RH WIND       PRES   REMARKS
NASHVILLE      PTSUNNY   46  22  38 NW14      30.06R
CLARKSVILLE    CLOUDY    35  22  58 NW13      30.11R WCI  26
SMYRNA         MOSUNNY   43  23  45 N13       30.06R
COOKEVILLE     MOSUNNY   39  27  60 NW6       29.99S WCI  35
CROSSVILLE     PTSUNNY   35  24  64 NW8       29.96R WCI  29
$$

TNZ061-075-076-078-094-096-097-262100-
SOUTH MIDDLE TENNESSEE

CITY           SKY/WX    TMP DP  RH WIND       PRES   REMARKS
FAYETTEVILLE   MOSUNNY   37  27  65 N7          N/A  WCI  32
TULLAHOMA      MOSUNNY   37  27  65 N6        30.03R WCI  33
WINCHESTER     MOSUNNY   37  27  65 VRB6      30.03R WCI  33
MCMINNVILLE    MOSUNNY   37  27  65 N5        30.01R WCI  34
COLUMBIA         N/A     45  23  42 VRB5      30.04R
SHELBYVILLE    MOSUNNY   43  28  56 N5        30.04R
$$

TNZ017-018-042-046-047-262100-
NORTHEAST TENNESSEE

CITY           SKY/WX    TMP DP  RH WIND       PRES   REMARKS
TRI CITIES     CLOUDY    35  30  82 SW5       29.93R WCI  31
ELIZABETHTON   LGT RAIN  32  28  86 SW3       29.92R FOG
$$

TNZ012-013-036-069-073-074-262100-
CENTRAL EAST TENNESSEE

CITY           SKY/WX    TMP DP  RH WIND       PRES   REMARKS
KNOXVILLE      CLOUDY    35  30  82 S5        29.98R WCI  31
OAK RIDGE      PTSUNNY   41  26  55 CALM      29.98S
GATLINBURG     CLOUDY    34  28  80 SW6       29.97R WCI  29
MORRISTOWN       N/A     36  28  75 CALM      29.96R
$$

TNZ083-085-099-262100-
SOUTHEAST TENNESSEE

CITY           SKY/WX    TMP DP  RH WIND       PRES   REMARKS
CHATTANOOGA    PTSUNNY   41  28  60 N6        30.01R
$$

SKY/WX REPORTED AS FAIR MEANS FEW OR NO CLOUDS BELOW
12 THOUSAND FEET.



USA.gov is the U.S. government's official web portal to all federal, state and local government web resources and services.